This is the latest recevied weather packets stored in our database for station/object SR9WXP. If no packets are shown the sender has not sent any weather packets the latest 10 day(s).
| Time | Temp. | Humidity | Pressure | Rain* | Wind** | Luminosity | Snow |
|---|---|---|---|---|---|---|---|
| 1787491216 | 11.67° C | 31% | 861.8 hPa | - | - | - | - |
| 1787491098 | 11.67° C | 31% | 861.8 hPa | - | - | - | - |
| 1787490977 | 12.22° C | 31% | 861.7 hPa | - | - | - | - |
| 1787490916 | 12.22° C | 31% | 861.7 hPa | - | - | - | - |
| 1787490856 | 12.22° C | 31% | 861.7 hPa | - | - | - | - |
| 1787490737 | 12.22° C | 31% | 861.7 hPa | - | - | - | - |
| 1787490613 | 12.22° C | 31% | 861.7 hPa | - | - | - | - |
| 1787490495 | 11.67° C | 31% | 861.7 hPa | - | - | - | - |
| 1787490374 | 11.67° C | 31% | 861.8 hPa | - | - | - | - |
| 1787490313 | 11.67° C | 31% | 861.8 hPa | - | - | - | - |
| 1787490254 | 11.11° C | 31% | 861.9 hPa | - | - | - | - |
| 1787490135 | 11.11° C | 31% | 861.9 hPa | - | - | - | - |
| 1787490081 | 11.11° C | 31% | 861.9 hPa | - | - | - | - |
| 1787490046 | 11.11° C | 31% | 861.9 hPa | - | - | - | - |
| 1787490010 | 11.11° C | 31% | 861.9 hPa | - | - | - | - |
| 1787489890 | 10.56° C | 31% | 861.8 hPa | - | - | - | - |
| 1787489770 | 10.56° C | 31% | 861.7 hPa | - | - | - | - |
| 1787489710 | 10.56° C | 31% | 861.6 hPa | - | - | - | - |
| 1787489650 | 10.56° C | 31% | 861.5 hPa | - | - | - | - |
| 1787489530 | 10.56° C | 31% | 861.5 hPa | - | - | - | - |
| 1787489407 | 10.56° C | 31% | 861.5 hPa | - | - | - | - |
| 1787489288 | 11.11° C | 31% | 861.4 hPa | - | - | - | - |
| 1787489168 | 11.11° C | 31% | 861.2 hPa | - | - | - | - |
| 1787489107 | 11.11° C | 31% | 861.2 hPa | - | - | - | - |
| 1787489048 | 11.67° C | 31% | 861.2 hPa | - | - | - | - |
* Rain since midnight (hover to see other rain measurements)
** Current wind speed in m/s (hover to see current wind gust speed)